This demonstration page uses our WeatherBlox Daily Observations layout. Learn more.

38.80484, -77.04692

Hourly Observations for November 1, 2019

Temp ( °F °C ) Dew Point ( °F °C ) Humidity (%) Winds ( mph kmh ) Pressure ( in mb ) Visibility ( mi km ) Precip ( " mm )
12:52 am 00:52 Cloudy with Light Rain 53 11.7 43 6.1 69 69 WNW 12 19 29.82 1010 10 16.0934 0.03 0.762
1:52 am 01:52 Partly Cloudy 51 10.6 33 0.6 50 50 WNW 25 41 29.87 1012 10 16.0934 0.001 0.001
2:52 am 02:52 Clear 48 8.9 32 0 54 54 WNW 21 33 29.93 1014 10 16.0934 0 0
3:52 am 03:52 Clear 46 7.8 30 -1.1 54 54 NW 14 22 29.99 1016 10 16.0934 0 0
4:52 am 04:52 Clear 46 7.8 29 -1.7 51 51 WNW 13 20 30.04 1017 10 16.0934 0 0
5:52 am 05:52 Clear 45 7.2 29 -1.7 54 54 WNW 10 17 30.08 1019 10 16.0934 0 0
6:52 am 06:52 Clear 45 7.2 29 -1.7 54 54 WNW 14 22 30.11 1020 10 16.0934 0 0
7:52 am 07:52 Mostly Sunny 45 7.2 29 -1.7 54 54 W 6 9 30.15 1021 10 16.0934 0 0
8:52 am 08:52 Mostly Sunny 47 8.3 30 -1.1 52 52 WNW 14 22 30.16 1021 10 16.0934 0 0
9:52 am 09:52 Mostly Sunny 47 8.3 30 -1.1 52 52 NW 22 35 30.18 1022 10 16.0934 0 0
10:52 am 10:52 Partly Cloudy 48 8.9 30 -1.1 50 50 W 16 26 30.22 1023 10 16.0934 0 0
11:52 am 11:52 Partly Cloudy 51 10.6 30 -1.1 44 44 WNW 15 24 30.24 1024 10 16.0934 0 0
12:52 pm 12:52 Mostly Sunny 52 11.1 31 -0.6 45 45 NNW 14 22 30.25 1024 10 16.0934 0 0
1:52 pm 13:52 Mostly Sunny 53 11.7 30 -1.1 41 41 NW 15 24 30.23 1024 10 16.0934 0 0
2:52 pm 14:52 Sunny 54 12.2 30 -1.1 40 40 WNW 16 26 30.23 1024 10 16.0934 0 0
3:52 pm 15:52 Sunny 54 12.2 30 -1.1 40 40 NW 12 19 30.24 1024 10 16.0934 0 0
4:52 pm 16:52 Sunny 53 11.7 30 -1.1 41 41 NNW 13 20 30.25 1025 10 16.0934 0 0
5:52 pm 17:52 Sunny 51 10.6 29 -1.7 43 43 NNW 10 17 30.27 1025 10 16.0934 0 0
6:52 pm 18:52 Clear 49 9.4 29 -1.7 46 46 NNW 10 17 30.28 1025 10 16.0934 0 0
7:52 pm 19:52 Clear 48 8.9 29 -1.7 48 48 NNW 10 17 30.3 1026 10 16.0934 0 0
9:52 pm 21:52 Clear 46 7.8 30 -1.1 54 54 N 10 17 30.29 1026 10 16.0934 0 0
10:52 pm 22:52 Clear 44 6.7 30 -1.1 58 58 N 10 17 30.31 1026 10 16.0934 0 0
11:52 pm 23:52 Clear 44 6.7 30 -1.1 58 58 N 10 17 30.3 1026 10 16.0934 0 0

Powered by AerisWeather